Location: Champs
(48.8539°N, 2.6040°E)
Time: 22:08:30
(UTC+00:00)

deb Kosmos-2150 - Pass Details

Date: 26 August 2022
Orbit: 749 x 758 km, 74.1° (Epoch: 24 September)

Event Time Altitude Azimuth Distance (km) Brightness Sun altitude
Rises 04:02:50 0° 187° (S) 3,186 ? -9.2°
Reaches altitude 10° 04:05:13 10° 183° (S) 2,268 ? -8.8°
Maximum altitude 04:10:13 55° 107° (ESE) 903 ? -8.1°
Drops below altitude 10° 04:15:16 10° 31° (NNE) 2,290 ? -7.3°
Sets 04:17:41 0° 27° (NNE) 3,221 ? -7.0°
